Tracking 32407 objects as of 5-Dec-2025
HD Live streaming from Space Station
objects crossing your sky now

INSAT 4A

Track INSAT 4A now!
INSAT 4A is classified as:


NORAD ID: 28911
Int'l Code: 2005-049A
Perigee: 36,070.5 km
Apogee: 36,125.6 km
Inclination: 5.9 °
Period: 1,451.7 minutes
Semi major axis: 42469 km
RCS: 12.5892 m2 (large)
Launch date: December 21, 2005
Source: India (IND)
Launch site: FRENCH GUIANA (FRGUI)
Your satellite tracking list
Your tracking list is empty




NASA's NSSDC Master Catalog

Two Line Element Set (TLE):
1 28911U 05049A   25337.79166388 -.00000001  00000-0  00000-0 0  9999
2 28911   5.9386  74.1378 0006477 141.5464 230.0893  0.99195986 43494
Source of the keplerian elements: AFSPC